Terminal Aerodrome Forecast
Issued by NWS Cleveland, OH

Home | Current Version | Previous Version | Graphics & Text | Print | Product List | Glossary Off
Versions: 1 2 3 4 5 6 7 8 9 10 11 12 13 14

940
FTUS41 KCLE 262050 AAA
TAFTOL
TAF AMD
KTOL 262050Z 2621/2718 27012KT P6SM VCSH BKN050
     FM270200 27010KT P6SM BKN100
     FM270800 28008KT P6SM SCT100=

USA.gov is the U.S. government's official web portal to all federal, state and local government web resources and services.